Flag for Brunei Weather past 2 weeks in Bandar Seri Begawan, Brunei

88 °F

Partly sunny.

Feels Like: 98 °F
Forecast: 77 / 89 °F
Wind: 3 mph from Northwest

Location: Brunei Airport

Current Time: Nov 27, 2015 at 12:35:51 PM

Latest Report: Nov 27, 2015 at 11:30 AM

Visibility: N/A

Pressure: 29.83 "Hg

Humidity: 66%

Dew point: 75 °F

Location of Bandar Seri BegawanLocation

Historic Weather in Bandar Seri Begawan — Graph


Bandar Seri Begawan temperature yesterday

Maximum temperature yesterday: 90 °F (at 11:30 AM)
Minimum temperature yesterday: 77 °F (at 12:30 AM)
Average temperature yesterday: 82 °F

Past Weeks' High & Low Weather Summary

High91 °F (Nov 15, 2:00 PM)100% (Nov 12, 9:00 PM)29.92 "Hg (Nov 12, 9:00 PM)
Low73 °F (Nov 18, 4:00 PM)52% (Nov 15, 2:30 PM)29.71 "Hg (Nov 15, 3:00 PM)
Average82 °F88%29.80 "Hg
* Reported Nov 12 11:00 AM — Nov 27 11:00 AM, Bandar Seri Begawan, Weather by CustomWeather, © 2015

Note: Actual official high and low records may vary slightly from our data, if they occured in-between our weather recording intervals... More about our weather records


Bandar Seri Begawan weather history for previous 24 hours

Time TempWeatherWind HumidityBarometerVisibility
11:00 AM
Fri, Nov 27
86 °FPartly sunny.2 mph70%29.83 "HgN/A
10:30 AM86 °FPartly sunny.6 mph75%29.83 "HgN/A
10:00 AM84 °FPartly sunny.6 mph79%29.86 "HgN/A
9:30 AM84 °FPartly sunny.5 mph84%29.86 "HgN/A
9:00 AM81 °FPartly sunny.5 mph89%29.86 "HgN/A
8:30 AM81 °FBroken clouds.5 mph89%29.83 "HgN/A
8:00 AM81 °FBroken clouds.5 mph89%29.86 "HgN/A
7:30 AM79 °FBroken clouds.2 mph94%29.83 "HgN/A
7:00 AM77 °FBroken clouds.3 mph100%29.83 "HgN/A
6:00 AM77 °FPassing clouds.7 mph100%29.80 "HgN/A
5:30 AM77 °FLight rain. Passing clouds.3 mph94%29.80 "HgN/A
5:00 AM77 °FLight rain. Passing clouds.2 mph100%29.80 "Hg6 mi
4:30 AM75 °FLight rain. Passing clouds.1 mph100%29.80 "Hg6 mi
4:00 AM75 °FLight rain. Passing clouds.2 mph100%29.80 "Hg6 mi
3:00 AM75 °FLight rain. Passing clouds.2 mph100%29.80 "Hg6 mi
2:30 AM75 °FLight rain. Passing clouds.2 mph100%29.80 "Hg6 mi
2:00 AM77 °FLight rain. Passing clouds.3 mph94%29.80 "Hg5 mi
1:30 AM77 °FLight rain. Passing clouds.3 mph94%29.83 "Hg5 mi
1:00 AM77 °FLight rain. Passing clouds.6 mph100%29.83 "Hg6 mi
12:30 AM77 °FLight rain. Passing clouds.8 mph100%29.83 "HgN/A
12:00 AM77 °FLight rain. Passing clouds.2 mph100%29.83 "HgN/A
11:30 PM
Thu, Nov 26
77 °FPassing clouds.6 mph100%29.86 "HgN/A
11:00 PM77 °FLight rain. Passing clouds.7 mph100%29.83 "HgN/A
10:30 PM79 °FLight rain. Passing clouds.7 mph94%29.83 "Hg6 mi
10:00 PM79 °FLight rain. Passing clouds.3 mph100%29.83 "Hg6 mi
9:30 PM79 °FSprinkles. Passing clouds.2 mph100%29.83 "Hg6 mi
9:00 PM79 °FThunderstorms. Partly cloudy.7 mph94%29.83 "Hg5 mi
8:30 PM79 °FThunderstorms. Partly cloudy.9 mph100%29.83 "Hg3 mi
8:00 PM82 °FThunderstorms. Partly cloudy.5 mph89%29.80 "Hg4 mi
7:30 PM82 °FThunderstorms. Passing clouds.3 mph89%29.80 "HgN/A
7:00 PM82 °FPassing clouds.1 mph89%29.77 "HgN/A
6:30 PM82 °FPassing clouds.3 mph89%29.77 "HgN/A
6:00 PM82 °FPartly sunny.1 mph89%29.74 "HgN/A
5:30 PM84 °FPartly sunny.2 mph84%29.74 "HgN/A
5:00 PM84 °FPartly sunny.2 mph84%29.71 "HgN/A
4:30 PM86 °FPartly sunny.2 mph79%29.71 "HgN/A
4:00 PM86 °FThunderstorms. Broken clouds.5 mph75%29.71 "Hg4 mi
3:30 PM88 °FThunderstorms. Broken clouds.5 mph70%29.74 "Hg5 mi
3:00 PM90 °FThunderstorms. Partly sunny.6 mph67%29.74 "HgN/A
2:30 PM90 °FPartly sunny.8 mph71%29.74 "HgN/A
2:00 PM88 °FSprinkles. Broken clouds.8 mph75%29.74 "HgN/A
1:30 PM88 °FSprinkles. Broken clouds.9 mph75%29.77 "HgN/A
1:00 PM88 °FSprinkles. Broken clouds.7 mph75%29.80 "HgN/A
12:30 PM90 °FBroken clouds.6 mph67%29.80 "HgN/A
Weather by CustomWeather, © 2015

See weather overviewHow to use our weather pages